Simultaneous Nadir Overpasses (SNOs) Predictions

Prediction of SNOs between GOES-17 and METOP-B Satellite Orbit:

Table of predicted SNOs for the next 14.0 days since TLE Epoch: 11/18/2023
Index Date Time (GOES-17) GOES-17 Lat,Lon METOP-B Lat,Lon Distance(km) Time Diff (sec)
1 11/18/2023 16:34:35 0.04,-104.67 0.55,-107.03 268.76 80
2 11/19/2023 16:16:34 0.04,-104.67 -0.55,-102.03 300.51 80
3 11/21/2023 04:35:32 -0.04,-104.66 -0.50,-106.62 224.56 80
4 11/22/2023 04:12:12 -0.05,-104.65 0.61,-101.63 344.59 80
5 11/23/2023 16:31:02 0.05,-104.67 0.40,-106.19 174.03 80
6 11/24/2023 16:13:02 0.05,-104.67 -0.71,-101.20 395.48 80
7 11/26/2023 04:32:01 -0.04,-104.66 -0.27,-105.80 129.19 80
8 11/27/2023 04:08:40 -0.05,-104.66 0.78,-100.79 440.00 80
9 11/28/2023 16:27:30 0.05,-104.67 0.22,-105.36 79.05 80
10 11/29/2023 16:09:29 0.05,-104.67 -0.90,-100.36 490.49 80
11 12/01/2023 04:28:28 -0.06,-104.66 -0.13,-104.96 33.69 80
